Regional Weather Roundup
Issued by NWS

Home | Current Version | Previous Version | Graphics & Text | Print | Product List | Glossary On
Versions: 1 2 3 4 5 6 7 8 9 10 11 12 13 14 15 16 17 18 19 20 21 22 23 24 25 26 27
000
ASUS45 KBOU 231207
RWRCO

WEATHER ROUNDUP FOR COLORADO
NATIONAL WEATHER SERVICE DENVER/BOULDER CO
600 AM MDT FRI JUN 23 2017

NOTE: "FAIR" INDICATES FEW OR NO CLOUDS BELOW 12000 FEET WITH NO
SIGNIFICANT WEATHER AND/OR OBSTRUCTIONS TO VISIBILITY.

COZ001>005-013-030-031-231300-
...NORTHWEST COLORADO...

CITY           SKY/WX    TMP DP  RH WIND       PRES   REMARKS
CRAIG          FAIR      46  36  68 W5        30.23R
HAYDEN         FAIR      46  30  53 S3        30.24R
MEEKER         FAIR      45  40  82 MISG      30.24R
RABBIT EARS PA FAIR      43  34  70 S5        30.44R
STEAMBOAT SPGS FAIR      42  35  74 CALM      30.25R
WALDEN         FAIR      39  32  75 NE5       30.32S
$$

COZ006>008-011-231300-
...WEST CENTRAL VALLEYS...

CITY           SKY/WX    TMP DP  RH WIND       PRES   REMARKS
GRAND JUNCTION FAIR      67  32  27 N5        30.07R
MONTROSE       FAIR      57  35  43 S8        30.15R
EAGLE          FAIR      47  36  65 SW3       30.26R
RIFLE          FAIR      52  34  50 CALM      30.15R
DELTA          FAIR      61  37  41 CALM      30.09R
NUCLA          FAIR      57  32  38 SE8       30.16R
$$

COZ017>023-064>068-231300-
...SOUTHWEST COLORADO...

CITY           SKY/WX    TMP DP  RH WIND       PRES   REMARKS
DURANGO        FAIR      55  30  38 N5        30.13R
CORTEZ         FAIR      51  38  60 NE5       30.12R
PAGOSA SPRINGS FAIR      53  33  46 CALM      30.21R
TELLURIDE      FAIR      51  32  47 SE7       30.36R
WOLF CREEK PAS FAIR      50  27  40 CALM      30.57R
$$

COZ009-010-012-014-032>034-037-058>063-231300-
...CENTRAL COLORADO...

CITY           SKY/WX    TMP DP  RH WIND       PRES   REMARKS
ASPEN          FAIR      45  36  70 SW9       30.28R
BUENA VISTA    FAIR      51  34  52 NW13G21   30.28R
COPPER MTN     FAIR      46  23  39 CALM      30.54R
BERTHOUD PASS  FAIR      34  23  64 S8G20     30.58R WCI  27
COTTONWOOD PAS FAIR      55  32  41 W3        30.39R
GUNNISON       FAIR      42  37  82 VRB3      30.27R
KREMMLING      NOT AVBL
LEADVILLE      FAIR      37  28  70 NE6       30.39R
MONARCH PASS   FAIR      45  32  61 SW13      30.62R
SALIDA         FAIR      54  38  54 W3        30.32R
SUNLIGHT       FAIR      43  25  49 CALM      30.48S
WILKERSON PASS FAIR      43  39  87 E8        30.52R
$$

COZ069>075-231300-
...SAN LUIS VALLEY/SANGRE DE CRISTO MOUNTAINS...

CITY           SKY/WX    TMP DP  RH WIND       PRES   REMARKS
ALAMOSA        FAIR      46  42  86 NE5       30.20R
DEL NORTE      FAIR      53  29  40 W13       30.24R
LA VETA PASS   FAIR      46  41  81 N13       30.51R
SAGUACHE       FAIR      50  30  46 NW3       30.24R
$$

COZ035-036-038>040-231300-
...NORTHERN COLORADO FRONT RANGE...

CITY           SKY/WX    TMP DP  RH WIND       PRES   REMARKS
DENVER INTL AP HVY RAIN  53  50  89 NE16G28   30.27R FOG
DMNS CITY PARK   N/A     55  53  94 NE10G28   30.28R
AURORA         DRIZZLE   54  54  99 NE17G23   30.26R
FRONT RANGE AP CLOUDY    55  52  88 NE18G26   30.27R
ERIE MUNI ARPT RAIN      51  48  87 NE22G33   30.30R
BOULDER MUN AP LGT RAIN  52  48  87 N20G30    30.32R
CENTENNIAL     CLOUDY    57  54  89 NE12      30.25R
BROOMFIELD     LGT RAIN  52  50  93 N22G33    30.30R
FORT COLLINS   CLOUDY    52  43  71 NE17G25   30.31R
LONGMONT       CLOUDY    54  47  76 NE8       30.33R
$$

COZ041-046-047-076>085-087-088-231300-
...PIKES PEAK/PALMER DIVIDE AND SOUTHERN FOOTHILLS...

CITY           SKY/WX    TMP DP  RH WIND       PRES   REMARKS
COLO. SPRINGS  FAIR      58  53  84 N8        30.21R
A. F. ACADEMY  FAIR      58  52  82 N17       30.22R
SCHRIEVER AFB  NOT AVBL
CHEYENNE MTN   NOT AVBL
ELLICOTT       CLOUDY   N/A N/A N/A E12       30.21R
FALCON           N/A     57  53  85 N16G24    30.25R
FORT CARSON    FAIR      58  54  86 NE8       30.18R
LIMON          CLOUDY    54  46  74 NE20G29   30.22R
MONUMENT HILL  CLOUDY    52  52 100 N13       30.29R
CANON CITY     CLOUDY    61  57  88 E3        30.16R
WALSENBURG     NOT AVBL
TRINIDAD       FAIR      54  47  77 NW6       30.12R
$$

COZ042>045-048>051-090-091-231300-
...NORTHEAST COLORADO...

CITY           SKY/WX    TMP DP  RH WIND       PRES   REMARKS
GREELEY ARPT   LGT RAIN  52  45  77 N14G23    30.31R
AKRON          CLOUDY    52  46  80 NE26G36   30.23R
BURLINGTON     CLOUDY    56  47  71 NE18G29   30.13R
WRAY           DRIZZLE   57  54  88 MISG      30.17R
YUMA           DRIZZLE   54  50  87 N18       30.20R
STERLING       CLOUDY    52  46  82 N16G22    30.22R
HOLYOKE        NOT AVBL
FORT MORGAN    CLOUDY    51  45  81 N21G28    30.25R
$$

COZ086-089-092>099-231300-
...SOUTHEAST COLORADO...

CITY           SKY/WX    TMP DP  RH WIND       PRES   REMARKS
PUEBLO         MOCLDY    63  55  75 N15       30.13R
LA JUNTA       CLOUDY    65  57  75 NE17G25   30.10R
LAMAR          CLOUDY    63  52  67 NE12      30.06R
SPRINGFIELD      N/A     61  60  97 N15       30.06R
$$




USA.gov is the U.S. government's official web portal to all federal, state and local government web resources and services.